Flag for Singapore Weather past 2 weeks in Singapore, Singapore

Now
81 °F

Passing clouds.


Feels Like: 87 °F
Forecast: 78 / 89 °F
Wind: 3 mph from East

Location: Singapore / Paya Lebar

Current Time: Aug 5, 2015 at 6:58:49 AM

Latest Report: Aug 5, 2015 at 6:00 AM


Visibility: N/A

Pressure: 29.83 "Hg

Humidity: 89%

Dew point: 77 °F

Location of SingaporeLocation

Historic Weather in Singapore — Graph

°F

Singapore temperature yesterday

Maximum temperature yesterday: 86 °F (at 2:00 PM)
Minimum temperature yesterday: 75 °F (at 8:00 AM)
Average temperature yesterday: 82 °F

Past Weeks' High & Low Weather Summary

 TemperatureHumidityPressure
High93 °F (Jul 22, 3:00 PM)94% (Jul 25, 7:00 AM)29.95 "Hg (Jul 25, 7:00 AM)
Low73 °F (Aug 3, 8:00 AM)52% (Jul 22, 1:00 PM)29.77 "Hg (Jul 25, 5:00 PM)
Average85 °F73%29.86 "Hg
* Reported Jul 21 5:00 AM — Aug 5 5:00 AM, Singapore, Weather by CustomWeather, © 2015

Note: Actual official high and low records may vary slightly from our data, if they occured in-between our weather recording intervals... More about our weather records

Advertising

Singapore weather history for previous 24 hours

 ConditionsComfort  
Time TempWeatherWind HumidityBarometerVisibility
5:00 AM
Wed, Aug 5
81 °FPassing clouds.3 mph89%29.83 "HgN/A
11:00 PM
Tue, Aug 4
82 °FPassing clouds.3 mph79%29.89 "HgN/A
10:00 PM82 °FPassing clouds.5 mph74%29.86 "HgN/A
9:00 PM84 °FPassing clouds.6 mph74%29.83 "HgN/A
8:00 PM84 °FPartly cloudy.5 mph70%29.83 "HgN/A
7:00 PM84 °FBroken clouds.6 mph70%29.83 "HgN/A
6:00 PM86 °FPartly sunny.8 mph66%29.80 "HgN/A
5:00 PM86 °FPartly sunny.9 mph70%29.80 "HgN/A
4:00 PM86 °FPartly sunny.9 mph70%29.80 "HgN/A
3:00 PM86 °FPartly sunny.9 mph66%29.83 "HgN/A
2:00 PM86 °FPartly sunny.10 mph62%29.83 "HgN/A
1:00 PM84 °FPartly sunny.6 mph70%29.86 "HgN/A
12:00 PM82 °FPartly sunny.5 mph74%29.86 "HgN/A
11:00 AM79 °FScattered clouds.2 mph89%29.89 "HgN/A
10:00 AM77 °FLight rain. Partly sunny.1 mph94%29.89 "HgN/A
9:00 AM77 °FRain. Partly sunny.2 mph94%29.89 "Hg5 mi
8:00 AM75 °FRain. Partly sunny.5 mph94%29.89 "Hg4 mi
7:00 AM77 °FStrong thunderstorms. Partly cloudy.7 mph89%29.89 "Hg1 mi
6:00 AM79 °FThunderstorms. Passing clouds.9 mph89%29.86 "Hg5 mi
Weather by CustomWeather, © 2015

See weather overviewHow to use our weather pages